Total_Precipitation_Accumulation
0.00 0.00 0.00 0.00 0.00 0.00 0.00 0.00 0.00 0.01 0.00 0.01 0.04 0.06 0.07 0.08 0.08 0.15 0.20 0.18 0.20 0.32 0.48 0.71 1.04 1.45 1.96 1.92 1.80 1.93 2.14 2.17 2.22 2.46 2.54 2.61 2.91 3.15 3.32 3.41 3.35 3.32 3.22 3.24
0.00 0.00 0.00 0.00 0.00 0.00 0.00 0.00 0.01 0.03 0.02 0.02 0.06 0.08 0.10 0.12 0.13 0.19 0.25 0.31 0.34 0.40 0.62 0.90 1.23 1.76 2.21 2.37 2.39 2.39 2.59 2.80 2.95 3.13 3.45 3.78 4.07 4.29 4.45 4.49 4.07 3.86 3.75 3.68
0.00 0.00 0.00 0.00 0.00 0.00 0.00 0.00 0.02 0.05 0.04 0.04 0.08 0.16 0.19 0.22 0.22 0.29 0.42 0.55 0.71 0.70 0.92 1.17 1.43 1.85 2.21 2.37 2.50 2.60 2.82 3.22 3.66 4.01 4.37 4.77 4.99 5.09 4.89 4.64 4.51 4.36 4.23 4.12
0.00 0.00 0.00 0.00 0.00 0.00 0.00 0.00 0.00 0.02 0.04 0.06 0.09 0.22 0.40 0.39 0.39 0.48 0.61 0.59 0.67 0.83 1.08 1.33 1.61 1.90 2.18 2.35 2.45 2.73 3.23 3.86 4.40 4.82 5.25 5.72 5.87 5.71 5.40 5.00 4.66 4.43 4.16 3.83
0.00 0.00 0.00 0.00 0.01 0.01 0.01 0.00 0.01 0.01 0.01 0.05 0.07 0.18 0.52 0.58 0.58 0.67 0.80 0.68 0.64 0.67 0.88 1.18 1.43 1.66 1.96 2.12 2.35 2.71 3.28 3.99 4.71 5.47 6.06 6.41 6.33 6.01 5.62 4.99 4.44 3.97 3.61 3.31
0.00 0.00 0.01 0.01 0.01 0.00 0.00 0.00 0.01 0.01 0.01 0.03 0.05 0.17 0.55 0.83 0.89 0.84 0.72 0.65 0.59 0.59 0.66 0.79 0.94 1.15 1.39 1.74 2.10 2.51 3.10 3.82 4.50 5.15 5.64 5.72 5.61 5.41 4.97 4.32 3.73 3.38 3.08 2.77
0.02 0.02 0.02 0.01 0.01 0.01 0.01 0.01 0.04 0.05 0.06 0.07 0.09 0.24 0.62 0.90 1.05 0.87 0.68 0.58 0.48 0.49 0.52 0.57 0.66 0.89 1.17 1.42 1.77 2.20 2.65 3.22 3.68 4.05 4.45 4.55 4.51 4.35 4.09 3.66 3.24 2.86 2.40 2.07
0.09 0.06 0.03 0.01 0.01 0.01 0.01 0.01 0.06 0.10 0.10 0.14 0.22 0.44 0.75 0.80 0.85 0.71 0.59 0.52 0.47 0.47 0.50 0.56 0.66 0.81 1.06 1.30 1.54 1.75 2.03 2.38 2.55 2.61 2.81 2.99 2.98 2.99 2.90 2.64 2.41 2.15 1.81 1.49
0.16 0.10 0.04 0.02 0.01 0.02 0.02 0.02 0.03 0.05 0.05 0.17 0.41 0.67 0.91 0.79 0.69 0.63 0.63 0.54 0.49 0.49 0.51 0.55 0.62 0.69 0.83 0.99 1.10 1.19 1.32 1.49 1.56 1.64 1.66 1.72 1.78 1.80 1.74 1.63 1.45 1.27 1.11 0.92
0.13 0.11 0.04 0.02 0.02 0.03 0.03 0.04 0.05 0.08 0.14 0.26 0.47 0.75 1.02 1.06 0.93 0.76 0.63 0.50 0.43 0.44 0.47 0.50 0.55 0.60 0.65 0.71 0.78 0.83 0.87 0.97 1.07 1.13 1.14 1.14 1.13 1.09 1.00 0.93 0.87 0.76 0.66 0.59
0.11 0.11 0.06 0.04 0.04 0.05 0.05 0.06 0.09 0.12 0.13 0.28 0.54 0.98 1.18 1.37 1.33 0.96 0.69 0.54 0.46 0.45 0.46 0.51 0.53 0.48 0.47 0.50 0.56 0.62 0.66 0.70 0.75 0.78 0.81 0.81 0.77 0.72 0.67 0.63 0.59 0.52 0.42 0.35
0.14 0.19 0.18 0.12 0.08 0.06 0.06 0.08 0.13 0.26 0.27 0.26 0.53 1.24 1.55 1.68 1.58 1.23 0.91 0.74 0.68 0.58 0.55 0.58 0.55 0.48 0.45 0.49 0.50 0.52 0.54 0.57 0.62 0.58 0.56 0.58 0.54 0.48 0.45 0.42 0.37 0.33 0.30 0.24
0.11 0.21 0.41 0.36 0.25 0.15 0.09 0.10 0.12 0.16 0.23 0.33 0.62 1.33 1.77 1.73 1.65 1.39 1.10 1.00 0.97 0.91 0.82 0.73 0.64 0.58 0.54 0.52 0.48 0.45 0.43 0.43 0.47 0.47 0.44 0.45 0.44 0.41 0.36 0.31 0.26 0.22 0.21 0.20
0.10 0.24 0.55 0.73 0.50 0.30 0.20 0.13 0.11 0.14 0.30 0.40 0.63 1.09 1.51 1.63 1.57 1.47 1.40 1.42 1.36 1.15 0.92 0.78 0.70 0.64 0.61 0.57 0.51 0.46 0.42 0.38 0.38 0.40 0.39 0.36 0.34 0.33 0.31 0.27 0.24 0.21 0.16 0.14
0.19 0.43 0.46 0.40 0.33 0.29 0.23 0.21 0.17 0.18 0.24 0.44 0.74 1.04 1.38 1.55 1.53 1.56 1.68 1.62 1.38 1.13 0.94 0.83 0.79 0.74 0.71 0.65 0.59 0.51 0.44 0.39 0.36 0.38 0.41 0.38 0.32 0.28 0.26 0.23 0.21 0.19 0.16 0.12
0.23 0.38 0.39 0.36 0.29 0.30 0.29 0.32 0.32 0.31 0.37 0.58 0.83 1.23 1.59 1.70 1.73 1.66 1.64 1.62 1.51 1.31 1.13 0.99 0.89 0.82 0.79 0.73 0.69 0.65 0.60 0.55 0.47 0.44 0.46 0.43 0.37 0.31 0.26 0.21 0.16 0.13 0.10 0.06
0.21 0.34 0.54 0.51 0.30 0.41 0.56 0.49 0.41 0.42 0.51 0.68 0.84 1.05 1.29 1.40 1.48 1.55 1.63 1.66 1.62 1.48 1.31 1.17 1.11 1.06 1.01 0.93 0.86 0.79 0.68 0.58 0.49 0.43 0.40 0.38 0.32 0.27 0.22 0.16 0.12 0.10 0.09 0.07
0.15 0.29 0.43 0.43 0.47 0.74 0.61 0.42 0.38 0.42 0.51 0.54 0.62 0.73 0.95 1.10 1.23 1.41 1.56 1.67 1.69 1.56 1.47 1.38 1.26 1.15 1.08 0.96 0.81 0.63 0.50 0.43 0.38 0.34 0.30 0.26 0.21 0.18 0.14 0.11 0.10 0.10 0.10 0.09
0.07 0.19 0.35 0.43 0.59 0.69 0.61 0.37 0.33 0.46 0.56 0.49 0.49 0.52 0.60 0.69 0.84 1.19 1.30 1.33 1.44 1.44 1.37 1.29 1.19 1.10 0.98 0.80 0.61 0.46 0.38 0.33 0.29 0.27 0.24 0.18 0.13 0.12 0.12 0.10 0.09 0.09 0.11 0.11
0.06 0.14 0.31 0.44 0.66 0.80 0.72 0.30 0.19 0.34 0.69 0.60 0.53 0.53 0.57 0.69 0.78 0.83 0.86 0.86 0.93 1.02 1.06 1.06 0.96 0.85 0.73 0.56 0.41 0.35 0.31 0.28 0.25 0.21 0.17 0.13 0.11 0.11 0.11 0.11 0.10 0.10 0.11 0.12
0.20 0.23 0.38 0.50 0.67 0.74 0.40 0.22 0.28 0.62 0.79 0.63 0.53 0.58 0.71 0.82 0.72 0.51 0.48 0.60 0.70 0.76 0.81 0.80 0.73 0.66 0.54 0.40 0.34 0.33 0.30 0.26 0.20 0.14 0.13 0.12 0.10 0.09 0.09 0.11 0.13 0.12 0.11 0.12
0.31 0.38 0.47 0.51 0.67 0.71 0.26 0.25 0.47 0.54 0.40 0.35 0.38 0.42 0.44 0.42 0.37 0.33 0.32 0.40 0.51 0.62 0.66 0.63 0.56 0.50 0.42 0.34 0.32 0.30 0.27 0.21 0.16 0.15 0.15 0.13 0.10 0.06 0.06 0.12 0.15 0.12 0.12 0.13
0.28 0.34 0.40 0.47 0.57 0.42 0.19 0.21 0.22 0.22 0.25 0.24 0.29 0.30 0.24 0.24 0.28 0.28 0.29 0.36 0.43 0.46 0.46 0.44 0.38 0.34 0.34 0.31 0.30 0.28 0.21 0.15 0.12 0.14 0.16 0.13 0.09 0.07 0.06 0.08 0.11 0.11 0.12 0.11
0.29 0.20 0.21 0.25 0.30 0.24 0.18 0.17 0.16 0.17 0.20 0.21 0.23 0.26 0.22 0.18 0.15 0.19 0.28 0.37 0.40 0.38 0.33 0.32 0.31 0.31 0.31 0.28 0.26 0.24 0.18 0.16 0.17 0.19 0.18 0.13 0.11 0.09 0.06 0.05 0.04 0.05 0.06 0.06
0.34 0.18 0.19 0.25 0.26 0.23 0.25 0.22 0.18 0.18 0.18 0.19 0.22 0.26 0.22 0.15 0.14 0.17 0.25 0.29 0.32 0.32 0.30 0.32 0.37 0.36 0.29 0.24 0.21 0.19 0.17 0.16 0.21 0.22 0.17 0.14 0.11 0.09 0.08 0.06 0.03 0.03 0.03 0.02
0.24 0.23 0.22 0.27 0.26 0.27 0.31 0.22 0.18 0.23 0.28 0.31 0.30 0.25 0.19 0.16 0.15 0.17 0.20 0.22 0.24 0.27 0.30 0.34 0.33 0.28 0.20 0.17 0.16 0.12 0.10 0.10 0.15 0.16 0.13 0.10 0.08 0.07 0.05 0.07 0.07 0.03 0.01 0.01